Wind_Speed
12 7 6 10 4 2 2 3 4 5 5 5 5 5 5 5 7 7 8 8 8 9 9 7 6 5 6 6 6 4 8 7 7 6 6 5 6 6 5 6 7 7 8
15 8 5 9 2 2 3 3 5 5 7 7 7 8 8 9 10 10 10 9 7 8 9 9 7 6 4 4 4 5 12 7 8 8 7 7 7 5 5 6 6 7 7
19 11 6 2 1 3 4 6 7 7 7 9 10 10 10 11 12 13 13 12 11 9 8 9 9 7 6 4 4 4 6 7 9 8 8 8 7 6 6 6 6 8 7
13 9 7 4 4 4 5 7 8 10 10 11 11 12 12 12 13 13 14 15 15 13 12 11 11 10 9 7 6 9 10 10 11 10 10 9 10 10 9 6 6 9 11
4 6 3 3 2 3 6 9 9 10 11 13 14 15 16 15 16 16 16 16 17 17 16 14 14 14 12 11 8 11 14 13 14 13 11 12 12 11 10 9 8 10 12
3 3 3 3 5 6 7 9 10 11 11 12 12 13 15 17 18 18 19 19 19 19 18 17 16 16 16 14 14 12 15 17 17 16 15 15 13 13 12 11 11 11 13
3 1 2 3 5 6 7 10 12 13 15 16 17 17 18 19 19 20 20 20 21 22 21 21 20 18 17 18 16 18 17 17 19 20 20 19 17 17 16 14 15 14 14
3 4 4 4 5 7 8 10 11 13 14 15 17 19 21 22 23 23 24 23 22 22 23 24 24 23 21 19 20 20 22 21 21 21 23 24 23 22 22 19 18 17 16
8 7 8 9 10 10 10 12 13 15 17 18 19 20 20 22 23 23 23 24 26 27 26 24 26 26 26 26 24 23 24 25 26 24 24 25 28 27 27 24 24 22 21
11 12 12 12 13 14 15 16 17 18 20 21 22 23 25 25 26 26 26 26 26 26 27 28 29 30 28 29 28 28 27 28 28 29 29 28 28 30 31 30 28 28 26
12 13 14 14 14 15 17 18 19 21 23 24 25 26 26 27 28 30 31 31 30 29 29 29 30 30 30 31 31 31 32 32 31 32 32 33 32 31 32 32 32 31 31
13 13 13 15 16 17 19 20 21 22 23 25 26 27 28 28 29 30 32 33 33 34 34 34 34 33 32 31 31 31 33 34 35 36 35 34 35 36 35 33 36 35 34
15 16 18 20 22 23 25 26 27 28 30 31 32 33 34 34 34 34 34 35 36 37 37 37 37 37 37 36 34 33 33 34 36 38 39 39 38 37 38 38 37 37 37
19 21 23 25 26 28 29 30 32 33 34 36 37 39 41 42 42 41 41 41 41 41 42 41 41 40 39 38 39 38 37 36 36 38 40 41 42 41 40 40 41 41 39
22 24 26 28 30 32 34 35 37 38 40 41 43 45 46 47 48 48 48 48 47 47 47 47 46 45 43 42 41 41 41 40 40 39 39 41 43 44 44 43 43 43 43
26 28 30 32 34 36 38 40 42 44 45 47 49 50 51 53 54 54 54 54 53 53 53 52 52 51 50 48 47 46 45 45 44 43 43 41 43 45 46 46 46 45 44
30 32 35 37 39 41 44 46 49 50 53 54 56 57 58 59 60 61 61 61 60 59 58 58 58 57 56 55 53 52 50 49 48 47 46 46 45 45 47 47 48 49 48
35 36 38 42 45 47 49 52 55 57 60 62 63 65 66 66 66 66 66 66 66 65 64 63 62 62 62 61 59 57 55 55 52 51 50 49 49 49 48 48 49 50 51
39 42 45 47 49 52 54 57 60 61 64 66 68 70 71 71 71 71 71 71 71 70 69 69 68 66 65 65 64 62 61 59 58 56 55 53 52 51 51 51 51 51 52
43 45 48 51 54 57 59 62 65 66 67 68 70 72 74 74 75 75 75 74 74 74 74 74 73 72 72 69 67 67 64 63 62 60 59 58 57 55 55 54 54 54 53
46 49 52 56 59 62 64 67 69 70 71 71 71 73 74 75 76 77 76 75 76 77 78 78 77 76 76 75 73 71 69 68 66 64 63 62 62 60 58 57 57 56 55
49 52 56 59 61 64 66 68 69 70 71 72 73 73 73 75 76 76 76 76 76 78 77 79 80 79 78 79 79 77 74 73 72 69 68 67 66 65 63 60 59 59 58
52 56 58 60 63 65 68 69 70 70 69 69 71 72 73 74 75 76 76 79 78 76 75 75 77 78 78 78 81 82 81 79 74 75 74 72 70 68 67 65 63 61 61
55 58 61 65 66 68 68 69 69 71 70 71 73 74 73 72 74 74 76 76 75 75 75 74 74 75 75 76 78 80 83 84 81 79 77 78 75 74 72 70 68 65 64
59 63 65 67 68 69 70 71 71 70 71 72 71 70 70 71 72 73 72 71 71 72 71 73 74 74 75 74 73 75 79 82 85 84 82 78 80 80 76 74 72 71 68
64 68 71 72 74 75 75 74 73 73 73 72 71 70 69 70 72 74 74 75 76 75 75 75 76 77 78 78 78 77 76 77 80 83 85 84 83 79 81 78 77 74 72
Wind_Direction
176 184 156 127 164 233 249 269 278 281 293 293 292 274 262 265 271 281 288 295 305 313 318 320 315 332 333 334 332 296 162 176 189 197 208 216 222 211 211 205 204 199 190
168 145 107 113 155 202 256 261 272 274 280 278 274 273 274 271 275 278 283 287 294 305 315 318 310 298 317 309 315 288 209 181 204 199 205 220 220 231 232 233 223 185 194
128 121 119 140 260 284 283 290 291 291 285 284 280 280 280 279 281 286 288 287 289 291 299 305 306 288 298 281 256 185 186 213 220 218 217 217 217 242 242 247 223 187 196
88 90 114 142 182 226 260 268 274 280 276 274 278 278 274 275 273 272 275 280 285 288 287 287 291 291 272 278 241 223 227 225 231 230 225 221 220 216 232 234 227 211 199
114 125 123 135 263 246 240 249 256 266 275 277 282 284 288 284 279 274 272 270 271 276 280 279 278 279 273 261 254 237 237 240 233 232 230 232 225 225 229 229 224 221 213
179 183 191 217 238 247 256 266 272 272 270 271 275 278 277 277 277 276 274 273 272 269 271 273 271 266 269 263 256 250 244 244 246 243 236 235 232 232 225 230 227 227 222
298 295 228 254 274 275 279 280 279 277 273 273 271 269 269 272 273 274 276 275 274 273 271 268 269 267 260 262 259 252 252 248 245 247 248 243 239 241 236 229 231 227 229
281 285 284 275 272 281 286 285 285 285 285 284 282 279 278 277 277 279 278 275 273 269 269 269 266 265 263 257 256 255 252 250 249 248 246 246 243 239 238 233 235 236 236
288 278 282 286 281 274 271 272 275 279 281 283 283 282 281 283 283 281 279 278 277 276 271 268 269 267 264 261 254 250 251 251 251 248 247 245 247 245 244 241 238 238 238
310 310 308 303 297 296 295 292 290 287 285 283 282 282 283 283 281 280 281 281 280 278 278 276 269 264 263 263 260 257 252 250 250 249 249 248 244 244 246 245 243 242 241
293 293 288 290 293 291 289 290 290 292 292 292 293 291 289 289 289 287 285 282 280 279 277 275 273 271 268 263 259 257 255 252 251 250 248 248 248 247 246 247 244 244 244
304 294 292 295 298 298 298 296 295 294 293 292 291 291 291 290 288 287 287 286 284 282 279 275 273 272 270 267 265 261 258 255 255 253 251 249 247 248 248 248 249 245 244
307 306 304 303 303 302 300 299 297 296 294 292 291 290 289 287 287 285 283 282 282 282 280 278 276 272 269 268 266 264 261 258 254 254 255 252 250 249 248 248 250 250 247
310 309 307 306 305 303 301 299 297 295 293 292 291 289 288 286 284 281 281 280 279 279 278 277 276 274 272 270 267 263 262 261 258 254 252 254 252 251 250 250 249 248 249
297 297 296 295 295 293 291 289 288 288 287 286 285 284 284 282 282 281 279 276 275 275 274 274 274 273 270 269 267 268 265 261 260 260 257 255 253 252 249 250 250 251 250
287 288 289 289 288 288 287 288 289 288 288 287 285 283 282 282 280 279 277 274 273 272 271 270 270 270 269 268 265 265 266 265 263 259 258 257 256 254 251 248 248 248 250
287 287 287 289 291 293 293 292 292 292 290 289 289 289 287 285 283 281 280 278 276 272 270 269 267 267 267 266 266 266 264 262 262 262 259 257 257 255 254 253 250 248 247
283 285 288 291 290 291 292 292 292 292 291 290 289 287 286 284 282 281 280 278 277 274 272 269 267 266 264 263 263 263 262 262 261 260 259 257 255 256 256 252 252 251 249
288 289 290 291 292 293 293 294 293 292 291 290 288 287 286 284 284 282 281 278 277 276 274 271 269 265 265 263 261 260 259 259 259 258 257 255 254 253 253 255 253 250 249
291 291 292 293 293 293 294 294 294 293 290 288 288 287 286 285 284 283 281 279 278 275 273 272 270 268 265 262 261 260 259 257 256 256 256 255 253 252 251 249 252 253 250
295 296 297 297 295 295 294 293 292 291 291 289 288 287 286 285 284 283 282 279 276 274 273 271 269 267 266 264 261 259 258 258 256 255 254 254 253 252 250 250 250 249 252
297 299 298 297 296 295 294 293 291 290 290 290 291 290 289 287 286 285 284 281 278 275 273 271 269 267 265 265 263 260 256 256 255 255 254 253 252 252 252 249 248 248 248
295 296 296 298 299 297 295 293 291 290 291 290 288 285 284 284 285 285 285 283 281 279 276 274 272 270 266 264 263 262 259 255 252 254 253 252 252 252 251 250 248 247 247
298 301 300 300 300 298 296 293 293 293 290 288 286 286 287 287 287 286 284 282 281 279 278 277 274 272 270 267 265 262 260 258 254 248 251 252 251 250 249 249 248 247 246
300 300 299 299 299 300 300 298 294 291 289 288 287 287 287 286 286 284 283 282 281 281 279 278 277 276 275 272 268 265 262 260 257 253 246 246 249 249 248 248 247 247 246
300 300 300 301 304 304 302 298 295 294 292 290 290 290 289 288 287 285 284 283 283 281 279 278 276 275 274 273 272 270 267 263 259 257 252 246 243 246 246 246 247 246 246
Height
5840 5842 5842 5843 5846 5847 5846 5847 5848 5848 5848 5849 5849 5850 5851 5852 5852 5853 5853 5853 5852 5851 5851 5850 5850 5849 5849 5848 5848 5847 5847 5848 5849 5850 5850 5851 5852 5852 5852 5852 5852 5851 5852
5837 5841 5842 5842 5846 5846 5847 5846 5847 5847 5847 5848 5848 5849 5850 5850 5850 5850 5851 5851 5852 5851 5850 5850 5849 5849 5849 5848 5847 5848 5847 5847 5848 5849 5850 5850 5851 5852 5853 5853 5853 5852 5853
5835 5840 5843 5845 5846 5847 5847 5848 5847 5847 5847 5848 5848 5848 5848 5849 5849 5849 5850 5850 5850 5850 5850 5849 5849 5849 5849 5849 5847 5847 5848 5849 5849 5849 5849 5850 5850 5852 5852 5852 5852 5852 5853
5838 5842 5843 5845 5845 5846 5846 5847 5847 5847 5847 5847 5847 5846 5847 5847 5847 5848 5848 5848 5849 5848 5849 5849 5848 5847 5848 5848 5847 5847 5847 5847 5848 5849 5848 5848 5849 5850 5851 5851 5852 5853 5853
5843 5842 5844 5844 5846 5846 5845 5845 5846 5846 5847 5847 5847 5847 5846 5846 5846 5846 5846 5846 5845 5845 5846 5846 5846 5846 5846 5847 5846 5846 5846 5846 5846 5846 5847 5848 5848 5849 5850 5850 5851 5851 5852
5841 5842 5842 5842 5843 5843 5844 5845 5845 5845 5844 5844 5845 5844 5844 5843 5842 5843 5843 5843 5843 5843 5843 5842 5843 5843 5844 5844 5845 5845 5844 5844 5844 5844 5845 5846 5847 5848 5848 5849 5849 5850 5851
5839 5839 5840 5840 5841 5842 5843 5844 5843 5842 5842 5842 5841 5840 5840 5840 5839 5839 5839 5839 5840 5840 5839 5840 5840 5839 5840 5841 5842 5842 5842 5842 5842 5842 5843 5843 5845 5845 5846 5846 5847 5848 5849
5840 5840 5840 5840 5841 5841 5842 5842 5841 5841 5841 5840 5840 5839 5839 5838 5837 5837 5836 5836 5836 5836 5836 5836 5836 5836 5836 5837 5838 5839 5839 5839 5839 5840 5840 5840 5841 5842 5842 5843 5844 5846 5846
5839 5840 5840 5839 5840 5840 5841 5840 5839 5839 5838 5838 5837 5837 5836 5835 5835 5834 5833 5832 5831 5831 5831 5831 5831 5832 5833 5833 5833 5834 5835 5836 5836 5836 5836 5837 5837 5838 5838 5840 5841 5842 5843
5839 5839 5838 5839 5839 5839 5839 5838 5838 5837 5837 5836 5835 5834 5833 5832 5831 5830 5829 5829 5829 5827 5826 5826 5826 5826 5826 5828 5828 5829 5830 5830 5831 5831 5832 5832 5832 5833 5834 5835 5838 5838 5839
5838 5837 5837 5837 5836 5836 5836 5836 5835 5834 5833 5832 5831 5831 5830 5829 5828 5827 5826 5825 5824 5823 5823 5822 5821 5820 5821 5820 5821 5822 5823 5824 5824 5825 5826 5826 5827 5828 5828 5830 5832 5833 5834
5835 5835 5835 5835 5834 5834 5833 5833 5832 5831 5830 5829 5828 5827 5825 5824 5823 5822 5821 5820 5820 5819 5818 5817 5816 5815 5814 5814 5814 5814 5816 5817 5818 5819 5819 5820 5820 5821 5822 5824 5824 5827 5828
5834 5833 5832 5831 5830 5830 5829 5829 5828 5826 5825 5824 5822 5820 5819 5819 5818 5817 5816 5814 5813 5811 5811 5811 5810 5809 5809 5808 5807 5807 5807 5808 5809 5810 5811 5813 5814 5814 5815 5817 5818 5819 5821
5829 5828 5827 5826 5825 5824 5823 5823 5822 5820 5819 5818 5816 5814 5813 5811 5810 5809 5808 5807 5806 5805 5803 5802 5802 5801 5801 5801 5800 5800 5800 5800 5800 5802 5802 5803 5805 5807 5808 5809 5810 5812 5813
5826 5824 5823 5822 5821 5819 5817 5815 5814 5812 5811 5809 5807 5805 5803 5801 5800 5799 5799 5798 5797 5796 5795 5793 5792 5792 5791 5791 5791 5791 5791 5791 5792 5792 5794 5794 5795 5796 5798 5800 5803 5804 5805
5821 5820 5818 5816 5814 5812 5809 5807 5806 5805 5802 5800 5798 5796 5794 5792 5789 5787 5785 5785 5785 5785 5784 5783 5782 5781 5781 5780 5780 5781 5781 5782 5782 5783 5784 5785 5785 5786 5788 5790 5791 5794 5797
5815 5813 5810 5808 5806 5804 5802 5800 5797 5795 5792 5790 5788 5786 5784 5782 5780 5777 5775 5773 5772 5771 5770 5770 5769 5769 5768 5769 5769 5768 5769 5770 5770 5772 5773 5775 5775 5776 5778 5780 5782 5784 5786
5808 5807 5805 5802 5799 5796 5793 5790 5787 5784 5781 5778 5775 5771 5768 5765 5763 5761 5760 5758 5757 5755 5755 5754 5754 5754 5754 5754 5755 5755 5755 5756 5758 5759 5760 5762 5764 5766 5766 5768 5771 5774 5776
5802 5800 5797 5794 5791 5787 5783 5780 5776 5773 5768 5764 5759 5756 5752 5749 5747 5745 5743 5742 5741 5739 5738 5737 5736 5736 5736 5738 5740 5739 5740 5742 5743 5744 5746 5748 5750 5753 5755 5757 5759 5761 5764
5795 5791 5788 5784 5780 5776 5772 5768 5763 5758 5753 5748 5744 5740 5736 5732 5729 5727 5725 5723 5722 5720 5719 5718 5718 5718 5717 5719 5721 5723 5725 5725 5726 5729 5731 5732 5735 5737 5741 5743 5746 5749 5752
5787 5784 5780 5775 5771 5765 5760 5754 5748 5742 5736 5730 5726 5722 5718 5714 5710 5707 5705 5703 5700 5699 5698 5696 5697 5697 5697 5698 5700 5704 5707 5708 5710 5712 5714 5716 5719 5722 5725 5730 5732 5736 5739
5779 5775 5770 5764 5758 5752 5746 5740 5734 5728 5722 5717 5711 5706 5701 5696 5690 5686 5684 5682 5678 5678 5675 5674 5673 5674 5674 5675 5676 5680 5686 5689 5692 5696 5696 5699 5702 5705 5710 5714 5718 5721 5724
5768 5763 5758 5752 5746 5740 5733 5726 5720 5714 5709 5704 5697 5691 5684 5679 5674 5669 5664 5660 5657 5654 5654 5651 5649 5649 5652 5653 5652 5654 5658 5664 5673 5673 5677 5680 5684 5689 5692 5696 5702 5706 5710
5755 5750 5744 5738 5732 5725 5718 5712 5707 5700 5694 5687 5680 5674 5667 5660 5655 5649 5644 5640 5636 5632 5629 5628 5626 5626 5626 5630 5629 5629 5631 5637 5643 5653 5657 5659 5664 5668 5672 5678 5683 5689 5694
5743 5737 5730 5723 5716 5710 5703 5697 5690 5682 5675 5669 5663 5657 5650 5643 5636 5630 5625 5621 5618 5613 5609 5607 5605 5603 5603 5604 5606 5606 5607 5609 5615 5621 5634 5639 5639 5646 5654 5658 5664 5669 5675
5729 5722 5715 5706 5699 5691 5684 5675 5667 5661 5654 5648 5642 5636 5630 5624 5618 5611 5605 5600 5597 5593 5589 5586 5584 5582 5581 5580 5581 5582 5584 5586 5588 5591 5601 5613 5618 5624 5628 5638 5644 5648 5655